Probability
0 10 13 26 45 58 65 65 74 77 81 84 77 84 87 87 84 77 81 77 74 71 61 61 58 45 35 26 23 16 13 10 6 3 3 0 0 0 0 0 0 0 0
0 10 16 26 32 45 48 65 68 71 74 77 77 90 90 84 84 81 77 74 68 65 65 65 58 42 35 29 23 19 13 10 6 3 3 0 0 0 0 0 0 0 0
0 10 13 23 29 32 45 45 55 65 65 68 74 74 74 74 74 77 77 74 65 65 65 65 55 45 35 29 26 19 16 10 3 3 0 0 0 0 0 0 0 0 0
0 10 10 16 19 26 32 42 45 52 58 55 65 68 68 65 65 68 68 71 68 68 65 65 52 39 35 32 26 19 19 3 3 0 0 0 0 0 0 0 0 0 0
0 6 10 13 16 19 26 32 42 42 42 45 48 55 55 55 61 61 55 61 68 65 65 58 55 39 35 26 26 26 13 6 6 0 0 0 0 0 0 0 0 0 0
3 3 10 13 13 16 19 19 29 32 32 42 39 48 48 48 55 61 55 48 48 58 55 55 45 35 35 29 26 19 13 6 0 0 0 0 0 0 0 0 0 0 0
6 6 10 13 13 13 13 16 16 26 26 29 29 35 39 42 45 48 52 45 45 42 42 42 42 32 29 26 26 16 6 3 0 0 0 0 0 0 0 0 0 0 0
3 6 10 10 13 10 10 13 16 16 29 23 23 32 32 39 39 39 42 42 35 39 35 35 35 26 19 19 23 16 3 0 0 0 0 0 0 0 0 0 0 0 0
0 3 3 10 6 6 6 6 10 13 16 19 23 23 32 29 35 35 39 35 32 35 29 26 19 23 19 19 13 10 3 0 0 0 0 0 0 0 0 0 0 0 0
0 3 3 6 6 6 6 6 6 10 6 6 16 13 10 13 26 29 16 19 23 23 23 13 13 13 13 10 10 3 0 0 0 0 0 0 0 0 0 0 0 0 0
0 3 3 6 6 6 6 6 6 6 6 6 3 3 3 13 19 16 0 6 16 19 16 13 10 10 3 0 3 0 0 0 0 0 0 0 0 0 0 0 0 0 0
0 3 3 3 6 6 6 6 6 3 3 3 6 3 10 13 10 0 0 0 3 6 3 3 3 3 0 3 0 0 0 0 0 0 0 0 0 0 0 0 0 0 0
0 0 3 3 3 6 6 6 6 3 3 3 0 3 6 6 13 10 16 0 3 3 3 3 0 0 0 3 3 0 0 0 0 0 0 0 0 0 0 0 0 0 0
0 0 0 3 3 3 6 6 6 3 3 3 0 3 0 6 6 13 10 10 6 6 6 10 10 3 0 0 0 0 0 0 0 0 0 0 0 0 0 0 0 0 0
0 0 0 0 3 3 6 6 6 3 3 0 0 0 0 0 0 0 6 13 6 6 3 6 3 0 0 0 0 0 0 0 0 0 0 0 0 0 0 0 0 0 0
0 0 0 0 0 3 3 6 6 3 3 0 0 0 0 0 0 0 0 3 10 6 0 0 0 0 0 0 0 0 0 0 0 0 0 0 0 0 0 0 0 0 0
0 0 0 0 0 3 3 6 6 3 0 0 0 0 0 0 0 0 0 0 0 0 0 0 0 0 0 0 0 0 0 0 0 0 0 0 0 0 0 0 0 0 0
0 0 0 0 0 0 3 6 3 0 0 0 0 0 0 0 0 0 0 0 0 0 0 0 0 0 0 0 0 0 0 0 0 0 0 0 0 0 0 0 0 0 0
0 0 0 0 0 0 0 3 3 0 0 0 0 0 0 0 0 0 0 0 0 0 0 0 0 0 0 0 0 0 0 0 0 0 0 0 0 0 0 0 0 0 0
0 0 0 0 0 0 0 0 0 0 0 0 0 0 0 0 0 0 0 0 0 0 0 0 0 0 0 0 0 0 0 0 0 0 0 0 0 0 0 0 0 0 0
0 0 0 0 0 0 0 0 0 0 0 0 0 0 0 0 0 0 0 0 0 0 0 0 0 0 0 0 0 0 0 0 0 0 0 0 0 0 0 0 0 0 0
0 0 0 0 0 0 0 0 0 0 0 0 0 0 0 0 0 0 0 0 0 0 0 0 0 0 0 0 0 0 0 0 0 0 0 0 0 0 0 0 0 0 0
0 0 0 0 0 0 0 0 0 0 0 0 0 0 0 0 0 0 0 0 0 0 0 0 0 0 0 0 0 0 0 0 0 0 0 0 0 0 0 0 0 0 0
0 0 0 0 0 0 0 0 0 0 0 0 0 0 0 0 0 0 0 0 0 0 0 0 0 0 0 0 0 0 0 0 0 0 0 0 0 0 0 0 0 0 0
0 0 0 0 0 0 0 0 0 0 0 0 0 0 0 0 0 0 0 0 0 0 0 0 0 0 0 0 0 0 0 0 0 0 0 0 0 0 0 0 0 0 0
0 0 0 0 0 0 0 0 0 0 0 0 0 0 0 0 0 0 0 0 0 0 0 0 0 0 0 0 0 0 0 0 0 0 0 0 0 0 0 0 0 0 0
Height
5850 5850 5851 5852 5853 5853 5854 5855 5855 5856 5857 5858 5859 5859 5860 5861 5861 5862 5862 5863 5863 5863 5863 5863 5863 5863 5863 5863 5863 5863 5863 5862 5862 5862 5862 5862 5861 5861 5860 5859 5859 5858 5857
5846 5846 5847 5848 5849 5850 5850 5851 5852 5853 5854 5854 5855 5856 5857 5858 5858 5859 5860 5860 5860 5861 5861 5861 5861 5861 5861 5861 5861 5861 5861 5861 5861 5861 5860 5860 5860 5859 5859 5858 5857 5857 5856
5841 5842 5843 5844 5845 5846 5846 5847 5848 5849 5850 5851 5852 5853 5853 5854 5855 5856 5856 5857 5857 5858 5858 5859 5859 5859 5859 5859 5859 5859 5859 5859 5859 5859 5859 5858 5858 5858 5857 5856 5856 5855 5854
5837 5837 5838 5839 5840 5841 5842 5843 5844 5845 5846 5847 5848 5848 5849 5850 5851 5852 5853 5853 5854 5854 5855 5855 5856 5856 5856 5856 5857 5857 5857 5857 5857 5857 5856 5856 5856 5856 5855 5855 5854 5853 5852
5831 5832 5833 5834 5835 5836 5837 5838 5839 5840 5841 5842 5843 5844 5845 5846 5847 5848 5849 5849 5850 5851 5851 5852 5852 5853 5853 5853 5854 5854 5854 5854 5854 5854 5854 5854 5854 5853 5853 5852 5852 5851 5850
5825 5825 5827 5828 5829 5831 5832 5833 5834 5835 5836 5837 5837 5839 5840 5841 5842 5843 5844 5845 5846 5847 5847 5848 5849 5849 5850 5850 5850 5851 5851 5851 5851 5851 5851 5851 5851 5851 5850 5850 5849 5848 5847
5818 5819 5820 5821 5822 5824 5825 5826 5828 5829 5830 5831 5832 5833 5834 5835 5837 5838 5839 5840 5841 5842 5843 5844 5844 5845 5845 5846 5847 5847 5847 5848 5848 5848 5848 5848 5848 5848 5848 5847 5846 5846 5845
5810 5811 5812 5813 5815 5816 5818 5819 5820 5822 5823 5824 5825 5827 5828 5829 5830 5832 5833 5835 5836 5837 5838 5839 5840 5840 5841 5842 5842 5843 5844 5844 5844 5844 5844 5844 5844 5844 5844 5844 5843 5842 5841
5802 5803 5804 5805 5807 5808 5810 5811 5813 5814 5815 5817 5818 5819 5821 5822 5824 5825 5827 5828 5830 5831 5832 5834 5835 5836 5836 5837 5838 5839 5839 5840 5840 5840 5841 5841 5841 5841 5840 5840 5840 5839 5838
5793 5794 5795 5796 5797 5799 5801 5803 5804 5806 5807 5809 5810 5812 5813 5815 5816 5818 5819 5821 5823 5824 5826 5827 5829 5830 5831 5832 5833 5834 5834 5835 5836 5836 5836 5837 5837 5837 5836 5836 5836 5835 5834
5783 5784 5784 5786 5787 5789 5791 5793 5794 5796 5798 5799 5801 5803 5805 5806 5808 5810 5812 5813 5815 5817 5819 5820 5822 5824 5825 5826 5827 5828 5829 5830 5831 5831 5832 5832 5832 5832 5832 5832 5831 5831 5830
5772 5772 5773 5774 5776 5778 5780 5782 5784 5786 5787 5789 5791 5793 5795 5797 5799 5801 5803 5805 5807 5808 5810 5812 5815 5816 5818 5819 5821 5822 5823 5824 5825 5826 5827 5827 5828 5828 5828 5827 5827 5826 5825
5761 5761 5760 5762 5763 5765 5768 5770 5772 5773 5775 5778 5780 5782 5784 5787 5789 5792 5794 5796 5798 5800 5802 5804 5806 5809 5811 5812 5814 5815 5817 5818 5819 5820 5821 5822 5822 5822 5822 5822 5822 5821 5820
5749 5749 5748 5749 5750 5752 5754 5757 5758 5760 5763 5765 5768 5770 5773 5775 5778 5781 5784 5786 5788 5790 5793 5795 5798 5800 5802 5804 5806 5808 5809 5811 5813 5814 5815 5816 5816 5817 5817 5817 5816 5816 5815
5736 5736 5736 5736 5737 5738 5740 5742 5744 5746 5749 5751 5754 5757 5759 5763 5766 5769 5772 5775 5777 5780 5782 5785 5788 5790 5793 5796 5798 5800 5802 5804 5805 5807 5808 5809 5810 5810 5811 5811 5811 5810 5809
5722 5722 5722 5722 5722 5723 5725 5727 5729 5731 5733 5736 5739 5742 5745 5748 5752 5756 5759 5762 5765 5768 5771 5774 5778 5780 5783 5786 5789 5791 5794 5795 5797 5799 5801 5802 5803 5803 5804 5804 5805 5804 5804
5709 5708 5707 5707 5707 5708 5709 5710 5712 5715 5717 5720 5723 5726 5729 5732 5736 5740 5744 5748 5752 5755 5759 5762 5766 5769 5772 5776 5778 5781 5784 5787 5789 5791 5792 5794 5795 5796 5797 5798 5798 5798 5797
5695 5693 5692 5691 5691 5691 5691 5693 5695 5697 5700 5702 5705 5709 5712 5715 5719 5723 5728 5733 5737 5741 5745 5749 5753 5758 5761 5765 5768 5771 5774 5777 5780 5782 5784 5785 5787 5788 5789 5790 5791 5791 5790
5680 5678 5677 5675 5674 5673 5673 5675 5677 5680 5682 5684 5687 5690 5694 5697 5701 5705 5710 5716 5721 5726 5731 5736 5740 5745 5749 5753 5757 5760 5764 5767 5770 5773 5775 5776 5778 5780 5781 5782 5783 5783 5783
5665 5663 5661 5658 5657 5655 5655 5656 5658 5661 5664 5666 5669 5672 5675 5679 5682 5686 5692 5698 5704 5710 5716 5721 5726 5731 5735 5740 5744 5748 5752 5756 5759 5762 5765 5767 5769 5771 5773 5773 5774 5775 5775
5651 5648 5645 5643 5640 5638 5638 5639 5641 5643 5646 5649 5651 5653 5656 5660 5664 5668 5674 5681 5687 5693 5700 5705 5710 5716 5721 5726 5731 5735 5740 5743 5747 5751 5754 5757 5760 5762 5763 5765 5765 5766 5767
5638 5634 5631 5628 5626 5623 5622 5622 5624 5626 5629 5631 5633 5635 5638 5642 5646 5651 5656 5664 5670 5677 5683 5688 5694 5700 5706 5710 5716 5721 5726 5730 5735 5739 5743 5746 5749 5752 5754 5755 5756 5757 5758
5625 5621 5618 5615 5612 5609 5607 5606 5607 5610 5612 5614 5616 5618 5621 5624 5628 5633 5639 5646 5652 5659 5665 5671 5677 5683 5690 5695 5700 5706 5711 5716 5722 5727 5731 5735 5738 5741 5743 5745 5747 5748 5749
5614 5609 5606 5602 5599 5596 5595 5594 5593 5594 5597 5599 5600 5601 5604 5607 5612 5616 5622 5628 5634 5641 5647 5654 5660 5666 5673 5679 5685 5691 5698 5703 5709 5715 5719 5723 5726 5730 5733 5735 5737 5738 5739
5603 5598 5595 5591 5588 5585 5583 5581 5580 5580 5582 5583 5584 5586 5588 5591 5595 5600 5606 5612 5618 5624 5630 5636 5643 5650 5656 5663 5670 5676 5682 5689 5694 5700 5706 5711 5715 5719 5722 5725 5727 5729 5730
5593 5589 5584 5580 5578 5575 5572 5569 5568 5567 5568 5569 5569 5571 5573 5576 5580 5584 5589 5595 5601 5607 5613 5620 5627 5633 5640 5647 5654 5661 5668 5674 5681 5687 5693 5699 5703 5708 5711 5714 5716 5719 5721
Wind_Speed
18 19 20 20 20 20 20 20 20 20 20 20 20 19 19 19 18 18 18 17 15 14 12 11 10 10 9 9 8 8 7 6 6 5 5 5 5 5 5 6 6 7 8
19 20 20 21 21 21 22 22 22 22 22 22 22 21 21 21 20 20 19 19 17 16 15 14 12 12 11 11 10 10 9 9 8 7 7 7 7 7 7 7 7 8 9
22 22 22 22 23 23 23 24 24 24 24 24 24 23 23 23 22 21 21 20 20 19 17 16 15 14 13 12 12 11 11 11 10 9 9 9 9 8 8 9 9 9 10
25 25 25 25 25 25 25 25 25 26 26 26 26 26 25 25 24 23 22 22 22 21 20 19 17 16 15 14 14 13 13 13 12 12 11 11 10 10 10 10 10 11 11
28 28 28 28 28 27 27 27 27 27 27 27 27 27 27 27 26 26 25 24 24 23 22 21 20 19 18 16 16 15 15 14 14 13 13 13 12 12 12 12 12 13 13
31 31 31 31 31 31 30 30 30 30 29 30 29 29 29 29 29 28 27 27 26 25 23 22 22 21 20 19 18 17 16 16 15 15 15 15 14 14 14 14 14 14 15
34 34 34 34 34 34 33 33 33 33 33 33 33 32 32 31 31 31 30 29 28 27 26 25 24 23 22 21 20 19 18 18 17 17 17 16 16 16 16 15 16 16 16
36 36 36 37 37 37 37 37 36 36 36 36 36 35 35 34 33 33 33 32 31 30 28 27 26 25 24 23 22 22 21 21 20 19 19 18 18 17 17 17 17 17 17
39 39 39 39 39 39 39 40 39 39 39 39 39 38 38 37 36 36 35 34 34 33 32 30 29 28 26 25 24 24 24 23 22 21 21 20 19 19 19 19 19 19 19
41 41 41 42 42 42 42 42 42 42 42 42 42 41 41 40 39 39 38 38 37 36 35 33 32 30 29 28 27 26 26 25 24 24 23 22 21 21 21 21 20 20 20
42 43 44 44 44 45 45 44 44 45 45 45 45 44 44 44 43 42 41 41 40 39 38 36 35 34 32 31 30 29 28 27 26 26 25 24 23 23 22 22 22 22 22
43 44 45 46 47 47 48 47 47 48 48 48 48 47 47 47 46 45 44 44 43 42 41 40 38 37 35 34 33 32 31 30 29 28 27 26 26 25 24 24 24 24 24
45 46 47 48 49 49 50 50 50 51 51 51 51 50 50 50 49 48 47 47 46 46 44 43 41 40 38 37 36 35 34 33 32 30 30 29 28 27 27 26 26 26 25
46 48 49 50 51 51 52 53 53 54 54 54 54 54 54 54 53 52 51 50 49 48 47 45 44 43 41 40 39 38 37 36 34 33 32 31 31 30 29 28 27 27 27
47 49 50 51 52 53 54 55 55 57 57 57 57 57 57 57 56 55 54 53 52 51 50 49 47 46 45 43 42 41 39 38 37 36 34 33 33 32 31 29 29 28 28
47 49 50 52 53 55 56 57 57 58 59 59 60 60 60 59 59 58 57 56 56 54 53 52 50 49 47 46 45 43 42 40 39 38 37 36 34 33 32 31 31 30 30
48 49 51 53 55 56 57 59 60 60 61 61 62 62 62 62 61 61 61 60 58 57 56 55 53 51 50 48 47 46 45 43 41 40 39 38 37 35 34 33 32 32 31
48 50 52 54 55 57 58 60 61 61 61 62 63 63 63 64 64 63 63 63 62 60 59 58 56 54 53 51 50 48 47 46 44 42 41 40 39 37 36 35 34 34 33
48 50 51 53 55 57 58 60 61 61 61 62 63 63 64 65 65 65 65 65 64 62 61 60 59 57 55 54 52 51 50 48 47 45 43 42 41 39 38 37 37 36 35
48 49 51 52 53 55 57 58 60 60 60 61 62 63 64 64 65 65 66 66 66 65 63 62 62 60 59 58 56 55 53 52 49 48 46 45 43 41 40 40 39 38 37
47 48 49 50 51 53 54 55 57 58 59 59 60 62 63 63 64 65 66 66 66 66 65 64 64 63 62 61 59 57 56 54 51 50 49 47 45 44 42 41 40 39 39
45 46 47 48 49 50 52 53 54 56 57 58 59 61 62 63 64 65 65 65 65 66 66 65 65 65 64 63 61 59 58 55 55 52 50 49 48 47 44 43 42 41 40
44 45 46 47 48 48 49 50 52 53 55 56 57 59 61 62 63 64 65 65 65 66 66 67 66 66 65 65 63 62 60 58 55 54 52 51 50 48 46 45 44 42 41
44 45 45 46 46 46 46 47 50 50 52 54 55 56 58 60 62 63 64 65 65 65 66 66 65 66 66 65 64 63 61 59 56 55 54 52 50 49 47 46 45 43 42
44 44 44 44 44 44 45 47 48 49 50 52 54 55 56 58 60 61 62 63 64 64 64 65 65 66 66 66 64 63 62 61 59 57 55 53 51 50 48 47 46 45 43
43 43 43 41 42 43 44 46 47 47 49 50 52 53 54 56 57 58 61 63 62 63 63 64 65 65 66 66 65 63 62 63 60 58 57 54 52 51 49 48 46 45 43
Wind_Direction
250 249 247 246 245 245 244 243 242 239 237 238 239 239 239 238 238 237 236 234 233 232 231 232 235 236 237 238 238 237 238 240 245 255 266 277 288 296 302 309 314 315 318
252 250 249 248 246 245 245 245 244 243 242 240 240 241 241 241 240 240 239 238 238 237 236 237 239 241 241 241 241 241 242 243 247 253 261 269 278 285 294 300 304 307 311
252 251 250 249 247 246 245 245 245 245 244 244 243 242 242 242 242 241 241 241 241 240 241 241 242 244 244 244 244 244 244 246 249 254 260 266 273 280 287 294 298 300 304
252 251 250 249 249 248 247 246 245 246 245 245 245 244 243 243 243 242 242 243 243 242 242 243 244 244 245 246 246 246 247 249 251 256 261 266 271 276 282 288 292 295 298
253 252 251 250 250 250 249 249 247 247 247 247 246 246 245 244 243 243 243 244 245 244 244 244 243 244 245 248 248 248 249 250 253 257 261 265 269 273 278 283 288 291 293
254 253 252 251 250 250 250 250 250 249 248 248 248 248 248 247 246 245 246 245 245 246 246 244 244 245 246 247 249 251 252 252 254 258 261 264 267 271 275 279 283 288 291
255 254 253 251 250 250 250 250 250 250 250 249 249 249 249 248 247 247 247 247 246 246 246 246 246 246 246 247 249 251 253 254 255 258 261 263 265 269 273 277 280 284 288
256 256 255 253 252 251 250 250 250 250 250 250 250 249 249 249 249 248 248 248 248 247 247 246 247 248 247 249 250 251 253 255 256 258 261 263 264 267 271 275 278 281 285
258 257 256 255 253 252 251 251 251 251 250 250 250 249 249 249 249 249 248 247 247 248 249 248 247 247 249 249 251 252 254 256 257 258 260 262 264 266 269 273 277 280 283
259 258 257 255 254 253 251 251 251 251 251 250 250 249 249 248 248 249 248 248 248 248 249 249 248 248 248 249 250 252 254 255 257 258 259 261 263 266 268 271 275 278 281
261 259 258 256 255 254 253 252 251 251 251 251 250 249 249 248 248 249 249 249 248 248 248 249 249 248 248 249 250 251 253 255 256 257 259 260 263 266 268 271 274 277 280
264 262 260 258 256 255 254 253 252 252 251 250 250 250 249 249 249 249 250 249 249 248 247 248 249 249 249 249 249 250 252 254 257 258 258 260 262 265 267 270 274 276 279
266 264 263 259 257 256 255 254 253 252 252 251 250 250 250 249 249 249 249 249 249 248 247 247 248 248 249 249 249 250 251 253 255 258 260 260 262 264 266 269 273 275 278
267 265 263 261 259 258 256 255 254 253 252 251 250 250 250 249 249 249 248 249 249 249 248 248 247 247 248 250 249 250 251 252 254 256 258 260 262 263 266 269 272 275 277
267 266 264 261 260 258 257 255 255 254 253 252 251 250 250 249 249 249 249 249 249 249 249 248 247 248 248 249 250 249 250 252 254 255 257 259 262 263 265 268 270 273 276
269 267 265 263 261 260 258 256 256 254 254 253 253 252 251 250 250 249 248 248 248 248 249 248 248 248 248 248 250 249 249 251 253 254 255 257 260 262 264 266 269 271 275
271 269 267 265 264 262 260 257 256 256 255 254 253 253 252 251 251 249 248 247 247 248 247 247 247 248 248 248 249 250 249 249 251 254 254 256 258 261 263 265 267 270 273
272 271 270 268 267 265 262 258 256 256 255 254 253 253 252 252 251 250 248 247 246 247 247 246 246 247 247 248 249 249 250 249 250 253 254 255 256 259 262 264 266 268 271
275 273 272 271 268 266 263 258 256 255 254 254 254 253 253 251 250 249 247 246 246 246 246 245 245 245 246 247 248 249 250 250 250 251 253 255 256 257 260 262 265 267 269
279 277 276 274 271 268 264 260 257 255 254 254 254 254 253 251 250 248 246 245 244 245 245 246 244 244 245 245 247 248 249 249 249 250 252 254 255 256 259 261 263 266 268
283 281 279 277 275 271 266 260 258 256 255 255 254 254 253 252 250 248 246 244 244 244 244 245 245 243 244 244 245 247 247 248 249 249 250 252 254 255 257 260 262 264 267
285 283 281 280 278 274 269 263 259 258 256 255 255 254 252 251 250 248 246 243 243 243 243 244 244 244 243 243 244 245 246 246 248 249 250 251 252 254 255 257 259 262 265
287 285 283 282 280 276 272 266 261 259 258 256 256 255 253 251 249 247 246 243 243 243 243 243 243 243 242 242 243 244 245 246 246 248 249 249 251 252 254 256 258 260 263
290 286 284 284 281 277 274 270 264 261 259 258 257 255 252 250 248 246 244 243 243 242 243 241 241 242 242 242 242 242 244 246 246 247 248 248 248 251 253 255 257 259 262
292 289 286 284 281 278 276 273 269 264 261 259 257 255 253 250 248 246 244 243 242 242 243 241 241 242 242 241 241 241 243 245 244 246 246 247 248 250 251 253 255 258 261
294 291 288 284 282 280 277 274 271 268 264 260 257 255 253 250 248 246 244 243 242 242 243 242 241 241 241 239 239 240 242 243 243 244 245 246 247 248 249 252 254 258 260